GW2644 Weather Reports


Display with metric or nautical units.
time (UTC)temp
F
wind
direction
speed
MPH
gust
MPH
rain 1hr
in
rain 24hr
in
rain mn
in
humidity
%
barometer
mb
20260902030133 72 253 3.0 3.0 0.00 0.00 0.00 73 1017.9
20260902025633 72 334 0.0 3.0 0.00 0.00 0.00 73 1017.8
20260902025128 73 228 2.0 3.0 0.00 0.00 0.00 72 1017.8
20260902024623 73 270 0.0 2.0 0.00 0.00 0.00 71 1017.8
20260902024118 73 243 3.0 3.0 0.00 0.00 0.00 71 1017.6
20260902023614 73 255 2.0 3.0 0.00 0.00 0.00 71 1017.4
20260902023109 73 279 0.0 2.0 0.00 0.00 0.00 70 1017.5
20260902022608 73 237 2.0 3.0 0.00 0.00 0.00 70 1017.6
20260902022104 74 287 0.0 3.0 0.00 0.00 0.00 68 1017.3
20260902021559 74 270 3.0 3.0 0.00 0.00 0.00 67 1017.5
20260902021054 74 285 1.0 2.0 0.00 0.00 0.00 67 1017.4
20260902020550 75 262 0.0 4.0 0.00 0.00 0.00 66 1017.5
20260902020046 75 229 2.0 3.0 0.00 0.00 0.00 66 1017.2
20260902015541 75 258 2.0 5.0 0.00 0.00 0.00 66 1017.4
20260902015037 75 270 0.0 2.0 0.00 0.00 0.00 65 1017.5
20260902014532 76 311 0.0 3.0 0.00 0.00 0.00 64 1017.5
20260902014028 77 277 0.0 4.0 0.00 0.00 0.00 62 1017.5
20260902013522 77 297 0.0 3.0 0.00 0.00 0.00 61 1017.3
20260902013018 78 276 0.0 6.0 0.00 0.00 0.00 60 1017.5
20260902012513 78 331 1.0 3.0 0.00 0.00 0.00 59 1017.5
20260902012008 78 300 2.0 8.0 0.00 0.00 0.00 59 1017.3
20260902011504 79 233 2.0 5.0 0.00 0.00 0.00 58 1017.5
20260902011003 79 258 0.0 3.0 0.00 0.00 0.00 57 1017.4
20260902010458 79 304 2.0 5.0 0.00 0.00 0.00 57 1017.8
20260902005957 79 221 0.0 4.0 0.00 0.00 0.00 57 1017.5
20260902005456 80 295 2.0 5.0 0.00 0.00 0.00 55 1017.5
20260902004953 81 35 1.0 5.0 0.00 0.00 0.00 53 1017.5
20260902004452 80 279 3.0 5.0 0.00 0.00 0.00 54 1017.6
20260902003947 80 274 3.0 3.0 0.00 0.00 0.00 55 1017.5
20260902003442 80 244 3.0 6.0 0.00 0.00 0.00 56 1017.6
20260902002938 80 243 0.0 7.0 0.00 0.00 0.00 56 1017.4
20260902002433 81 279 1.0 4.0 0.00 0.00 0.00 55 1017.4
20260902001932 81 248 2.0 4.0 0.00 0.00 0.00 56 1017.5
20260902001427 80 292 0.0 4.0 0.00 0.00 0.00 56 1017.6
20260902000922 81 225 2.0 6.0 0.00 0.00 0.00 56 1017.7
20260902000417 80 330 6.0 6.0 0.00 0.00 0.00 56 1017.8
20260901235912 80 245 2.0 4.0 0.00 0.00 0.00 55 1017.6
20260901235407 81 246 4.0 5.0 0.00 0.00 0.00 56 1017.5
20260901234902 81 277 0.0 5.0 0.00 0.00 0.00 56 1017.6
20260901234356 81 259 3.0 7.0 0.00 0.00 0.00 56 1017.6
20260901233851 82 251 3.0 4.0 0.00 0.00 0.00 55 1017.5
20260901233346 81 262 2.0 6.0 0.00 0.00 0.00 55 1017.6
20260901232842 82 243 2.0 5.0 0.00 0.00 0.00 54 1017.7
20260901232337 81 277 1.0 4.0 0.00 0.00 0.00 53 1017.5
20260901231833 82 232 0.0 3.0 0.00 0.00 0.00 53 1017.5
20260901231329 82 246 5.0 7.0 0.00 0.00 0.00 53 1017.5
20260901230826 83 256 0.0 6.0 0.00 0.00 0.00 53 1017.6
20260901230325 84 222 3.0 4.0 0.00 0.00 0.00 50 1017.4
20260901225820 83 233 3.0 3.0 0.00 0.00 0.00 49 1017.8
20260901225319 84 90 0.0 3.0 0.00 0.00 0.00 48 1017.6
20260901224815 84 252 0.0 4.0 0.00 0.00 0.00 43 1017.4
20260901224311 84 198 0.0 4.0 0.00 0.00 0.00 44 1017.9
20260901223807 83 261 2.0 4.0 0.00 0.00 0.00 42 1017.5
20260901223302 84 203 0.0 4.0 0.00 0.00 0.00 42 1017.7
20260901222758 84 236 3.0 3.0 0.00 0.00 0.00 41 1017.6
20260901222254 84 352 0.0 4.0 0.00 0.00 0.00 43 1017.6
20260901221750 84 7 1.0 3.0 0.00 0.00 0.00 42 1018.0
20260901221245 83 285 1.0 3.0 0.00 0.00 0.00 42 1017.9
20260901220744 84 180 1.0 3.0 0.00 0.00 0.00 45 1018.0
20260901220238 83 229 2.0 4.0 0.00 0.00 0.00 45 1018.2
20260901215737 84 220 0.0 5.0 0.00 0.00 0.00 46 1018.2
20260901215232 84 4 0.0 4.0 0.00 0.00 0.00 46 1018.1
20260901214730 83 139 0.0 3.0 0.00 0.00 0.00 45 1018.2
20260901214223 84 201 2.0 5.0 0.00 0.00 0.00 45 1018.1
20260901213718 84 266 0.0 4.0 0.00 0.00 0.00 44 1018.4
20260901213213 84 187 0.0 3.0 0.00 0.00 0.00 45 1018.5
20260901212712 83 184 2.0 4.0 0.00 0.00 0.00 43 1018.4
20260901212209 83 218 3.0 4.0 0.00 0.00 0.00 44 1018.4
20260901211709 82 196 2.0 4.0 0.00 0.00 0.00 45 1018.2
20260901211205 82 195 0.0 4.0 0.00 0.00 0.00 45 1018.3
20260901210700 82 127 0.0 3.0 0.00 0.00 0.00 48 1018.3
20260901210156 82 187 0.0 5.0 0.00 0.00 0.00 47 1018.5
20260901205651 81 106 2.0 3.0 0.00 0.00 0.00 49 1018.6
20260901205146 81 270 2.0 4.0 0.00 0.00 0.00 50 1018.5
20260901204642 82 197 0.0 5.0 0.00 0.00 0.00 50 1018.6
20260901204137 83 209 0.0 3.0 0.00 0.00 0.00 51 1018.6
20260901203637 83 206 3.0 6.0 0.00 0.00 0.00 50 1018.7
20260901203132 82 218 0.0 5.0 0.00 0.00 0.00 53 1018.6
20260901202631 81 154 0.0 3.0 0.00 0.00 0.00 53 1018.6
20260901202127 82 77 1.0 4.0 0.00 0.00 0.00 53 1018.9
20260901201623 80 21 0.0 4.0 0.00 0.00 0.00 53 1018.7
20260901201122 83 270 0.0 7.0 0.00 0.00 0.00 51 1019.0
20260901200622 80 263 1.0 5.0 0.00 0.00 0.00 51 1019.1
20260901200117 80 202 0.0 7.0 0.00 0.00 0.00 54 1019.1
20260901195614 80 212 2.0 4.0 0.00 0.00 0.00 54 1019.1
20260901195109 79 90 0.0 2.0 0.00 0.00 0.00 56 1019.1
20260901194604 80 297 0.0 5.0 0.00 0.00 0.00 56 1018.9
20260901194059 79 194 0.0 3.0 0.00 0.00 0.00 58 1019.2
20260901193554 78 252 2.0 4.0 0.00 0.00 0.00 60 1019.1
20260901193049 77 157 0.0 5.0 0.00 0.00 0.00 60 1019.3
20260901192544 77 4 0.0 3.0 0.00 0.00 0.00 60 1019.4
20260901192040 79 304 0.0 4.0 0.00 0.00 0.00 60 1019.2
20260901191536 80 252 3.0 4.0 0.00 0.00 0.00 57 1019.4
20260901191032 78 229 2.0 2.0 0.00 0.00 0.00 60 1019.4
20260901190526 77 0 0.0 2.0 0.00 0.00 0.00 59 1019.6
20260901190026 78 225 0.0 5.0 0.00 0.00 0.00 60 1019.7
20260901185519 79 240 0.0 3.0 0.00 0.00 0.00 58 1019.7
20260901185018 77 341 0.0 2.0 0.00 0.00 0.00 61 1019.6
20260901184514 76 200 0.0 3.0 0.00 0.00 0.00 62 1019.5
20260901184009 76 259 2.0 2.0 0.00 0.00 0.00 61 1019.5
20260901183503 77 353 1.0 3.0 0.00 0.00 0.00 63 1019.6
20260901182959 75 283 0.0 4.0 0.00 0.00 0.00 63 1019.8
20260901182454 76 237 0.0 3.0 0.00 0.00 0.00 63 1019.7
20260901181948 77 357 0.0 3.0 0.00 0.00 0.00 60 1019.8
20260901181443 76 165 0.0 2.0 0.00 0.00 0.00 59 1019.8
20260901180942 75 99 0.0 1.0 0.00 0.00 0.00 64 1019.8
20260901180442 74 300 2.0 2.0 0.00 0.00 0.00 65 1019.8
20260901175940 74 23 0.0 3.0 0.00 0.00 0.00 66 1019.6
20260901175436 74 7 0.0 2.0 0.00 0.00 0.00 65 1019.9
20260901174930 75 206 1.0 3.0 0.00 0.00 0.00 64 1020.0
20260901174426 75 0 0.0 1.0 0.00 0.00 0.00 67 1019.9
20260901173921 73 111 0.0 1.0 0.00 0.00 0.00 67 1020.0
20260901173416 72 286 0.0 2.0 0.00 0.00 0.00 70 1019.8
20260901172912 72 195 0.0 1.0 0.00 0.00 0.00 68 1019.6
20260901172407 72 283 2.0 4.0 0.00 0.00 0.00 69 1019.6
20260901171905 72 162 2.0 3.0 0.00 0.00 0.00 69 1019.6
20260901171404 71 270 0.0 1.0 0.00 0.00 0.00 71 1019.7
20260901170902 70 270 0.0 3.0 0.00 0.00 0.00 73 1019.8
20260901170358 70 127 3.0 3.0 0.00 0.00 0.00 72 1019.7
20260901165851 70 194 0.0 1.0 0.00 0.00 0.00 73 1019.9
20260901165346 72 0 0.0 0.0 0.00 0.00 0.00 70 1019.7
20260901164843 71 294 0.0 2.0 0.00 0.00 0.00 71 1019.8
20260901164337 73 131 0.0 2.0 0.00 0.00 0.00 72 1019.8
20260901163832 72 0 0.0 0.0 0.00 0.00 0.00 72 1019.8
20260901163327 71 356 0.0 2.0 0.00 0.00 0.00 74 1019.7
20260901162822 72 0 0.0 2.0 0.00 0.00 0.00 74 1019.6
20260901162321 70 285 0.0 2.0 0.00 0.00 0.00 76 1019.5
20260901161820 71 170 0.0 0.0 0.00 0.00 0.00 76 1019.9
20260901161315 70 170 0.0 2.0 0.00 0.00 0.00 78 1019.6
20260901160810 69 172 0.0 1.0 0.00 0.00 0.00 79 1019.4
20260901160306 70 270 0.0 2.0 0.00 0.00 0.00 79 1019.8
20260901155805 70 174 0.0 1.0 0.00 0.00 0.00 80 1019.6
20260901155259 70 270 1.0 1.0 0.00 0.00 0.00 80 1019.8
20260901154750 70 279 0.0 0.0 0.00 0.00 0.00 82 1019.6
20260901154244 69 261 0.0 0.0 0.00 0.00 0.00 83 1019.7
20260901153740 69 354 0.0 0.0 0.00 0.00 0.00 84 1019.9
20260901153239 69 354 0.0 0.0 0.00 0.00 0.00 84 1019.7
20260901152738 69 327 0.0 2.0 0.00 0.00 0.00 83 1019.5
20260901152237 69 215 1.0 3.0 0.00 0.00 0.00 84 1019.6
20260901151733 68 225 0.0 2.0 0.00 0.00 0.00 84 1019.5
20260901151232 68 261 0.0 3.0 0.00 0.00 0.00 85 1019.5
20260901150726 68 209 0.0 1.0 0.00 0.00 0.00 85 1019.3
20260901150225 68 270 0.0 0.0 0.00 0.00 0.00 86 1019.2
20260901145723 68 270 0.0 0.0 0.00 0.00 0.00 86 1019.5
20260901145222 68 263 0.0 0.0 0.00 0.00 0.00 87 1019.3
20260901144718 67 286 0.0 0.0 0.00 0.00 0.00 87 1019.3
20260901144213 67 286 0.0 0.0 0.00 0.00 0.00 87 1019.2
20260901143708 67 286 0.0 0.0 0.00 0.00 0.00 87 1019.3
20260901143205 67 286 0.0 0.0 0.00 0.00 0.00 87 1019.3
20260901142701 67 286 0.0 0.0 0.00 0.00 0.00 87 1019.3
20260901142159 67 286 0.0 0.0 0.00 0.00 0.00 88 1019.3
20260901141654 67 286 0.0 1.0 0.00 0.00 0.00 88 1019.1
20260901141149 67 270 0.0 0.0 0.00 0.00 0.00 88 1019.0
20260901140648 67 291 0.0 0.0 0.00 0.00 0.00 88 1019.1
20260901140147 67 270 0.0 2.0 0.00 0.00 0.00 88 1019.3
20260901135642 67 270 0.0 0.0 0.00 0.00 0.00 89 1018.9
20260901135137 67 270 0.0 0.0 0.00 0.00 0.00 89 1018.9
20260901134633 67 255 0.0 2.0 0.00 0.00 0.00 89 1018.9
20260901134128 67 0 0.0 0.0 0.00 0.00 0.00 89 1018.7
20260901133627 67 0 0.0 1.0 0.00 0.00 0.00 89 1018.9
20260901133125 67 270 0.0 2.0 0.00 0.00 0.00 88 1018.6
20260901132620 67 270 0.0 3.0 0.00 0.00 0.00 89 1018.5
20260901132119 67 270 0.0 0.0 0.00 0.00 0.00 89 1018.4
20260901131620 67 270 0.0 0.0 0.00 0.00 0.00 89 1018.6
20260901131114 67 278 0.0 1.0 0.00 0.00 0.00 89 1018.4
20260901130610 67 270 0.0 0.0 0.00 0.00 0.00 89 1018.3
20260901130108 67 270 0.0 1.0 0.00 0.00 0.00 90 1018.5
20260901125606 66 270 0.0 0.0 0.00 0.00 0.00 90 1018.4
20260901125102 67 277 0.0 2.0 0.00 0.00 0.00 90 1018.3
20260901124556 66 279 0.0 0.0 0.00 0.00 0.00 91 1018.5
20260901124051 66 279 0.0 2.0 0.00 0.00 0.00 92 1018.4
20260901123546 66 279 0.0 2.0 0.00 0.00 0.00 93 1018.4
20260901123045 65 270 0.0 0.0 0.00 0.00 0.00 93 1018.4
20260901122543 65 270 0.0 0.0 0.00 0.00 0.00 93 1018.3
20260901122037 65 270 0.0 0.0 0.00 0.00 0.00 93 1018.3
20260901121532 65 270 0.0 0.0 0.00 0.00 0.00 93 1018.3
20260901121028 65 270 0.0 0.0 0.00 0.00 0.00 93 1018.3
20260901120527 65 270 0.0 0.0 0.00 0.00 0.00 92 1018.2
20260901120023 65 270 0.0 0.0 0.00 0.00 0.00 92 1017.8
20260901115518 65 270 0.0 0.0 0.00 0.00 0.00 92 1018.1
20260901115015 66 270 0.0 0.0 0.00 0.00 0.00 92 1018.0
20260901114511 65 270 0.0 0.0 0.00 0.00 0.00 92 1018.0
20260901114009 66 270 0.0 0.0 0.00 0.00 0.00 92 1018.1
20260901113508 66 270 0.0 0.0 0.00 0.00 0.00 92 1018.2
20260901113004 66 275 0.0 0.0 0.00 0.00 0.00 92 1018.1
20260901112458 66 275 0.0 0.0 0.00 0.00 0.00 92 1018.4
20260901111954 66 275 0.0 0.0 0.00 0.00 0.00 92 1018.3
20260901111452 66 275 0.0 0.0 0.00 0.00 0.00 92 1018.5
20260901110950 66 275 0.0 0.0 0.00 0.00 0.00 92 1018.4
20260901110446 66 275 0.0 0.0 0.00 0.00 0.00 92 1018.5
20260901105942 66 275 0.0 0.0 0.00 0.00 0.00 91 1018.4
20260901105438 66 275 0.0 0.0 0.00 0.00 0.00 91 1018.1
20260901104933 66 275 0.0 2.0 0.00 0.00 0.00 91 1018.3
20260901104428 66 261 0.0 0.0 0.00 0.00 0.00 91 1018.4
20260901103923 66 261 0.0 0.0 0.00 0.00 0.00 91 1018.4
20260901103418 66 270 0.0 0.0 0.00 0.00 0.00 91 1018.4
20260901102913 66 270 0.0 0.0 0.00 0.00 0.00 91 1018.5
20260901102413 66 270 0.0 0.0 0.00 0.00 0.00 90 1018.6
20260901101908 66 270 0.0 0.0 0.00 0.00 0.00 90 1018.7
20260901101403 66 279 0.0 0.0 0.00 0.00 0.00 90 1018.3
20260901100902 66 263 0.0 1.0 0.00 0.00 0.00 90 1018.3
20260901100357 66 270 0.0 1.0 0.00 0.00 0.00 91 1018.6
20260901095851 66 270 0.0 0.0 0.00 0.00 0.00 90 1018.5
20260901095348 66 286 0.0 2.0 0.00 0.00 0.00 90 1018.3
20260901094842 66 285 0.0 0.0 0.00 0.00 0.00 90 1018.4
20260901094337 66 270 0.0 1.0 0.00 0.00 0.00 90 1018.5
20260901093832 67 270 0.0 0.0 0.00 0.00 0.00 90 1018.3
20260901093331 67 279 0.0 0.0 0.00 0.00 0.00 90 1018.4
20260901092827 67 279 0.0 0.0 0.00 0.00 0.00 90 1018.5
20260901092322 67 279 0.0 1.0 0.00 0.00 0.00 90 1018.4
20260901091818 67 270 0.0 1.0 0.00 0.00 0.00 90 1018.4
20260901091313 67 290 0.0 2.0 0.00 0.00 0.00 90 1018.2
20260901090808 67 278 0.0 1.0 0.00 0.00 0.00 90 1018.3
20260901090303 67 279 0.0 2.0 0.00 0.00 0.00 89 1018.4
20260901085759 67 300 0.0 2.0 0.00 0.00 0.00 89 1018.2
20260901085253 67 331 1.0 2.0 0.00 0.00 0.00 89 1018.4
20260901084749 67 285 2.0 2.0 0.00 0.00 0.00 89 1018.3
20260901084245 67 315 2.0 2.0 0.00 0.00 0.00 90 1018.5
20260901083740 67 285 0.0 1.0 0.00 0.00 0.00 90 1018.4
20260901083240 67 270 0.0 1.0 0.00 0.00 0.00 90 1018.4
20260901082738 67 286 0.0 0.0 0.00 0.00 0.00 90 1018.7
20260901082233 68 286 0.0 0.0 0.00 0.00 0.00 89 1018.5
20260901081729 68 270 0.0 0.0 0.00 0.00 0.00 89 1018.8
20260901081229 68 345 0.0 1.0 0.00 0.00 0.00 89 1018.4
20260901080724 68 262 0.0 0.0 0.00 0.00 0.00 89 1018.3
20260901080222 68 262 0.0 0.0 0.00 0.00 0.00 89 1018.4
20260901075717 68 262 0.0 0.0 0.00 0.00 0.00 89 1018.6
20260901075212 68 300 0.0 0.0 0.00 0.00 0.00 88 1018.6
20260901074706 68 8 0.0 1.0 0.00 0.00 0.00 88 1018.5
20260901074201 69 334 0.0 0.0 0.00 0.00 0.00 89 1018.6
20260901073658 68 334 0.0 0.0 0.00 0.00 0.00 89 1018.7
20260901073153 68 331 1.0 2.0 0.00 0.00 0.00 89 1018.4
20260901072648 68 320 2.0 2.0 0.00 0.00 0.00 89 1018.5
20260901072142 68 278 0.0 1.0 0.00 0.00 0.00 89 1018.5
20260901071637 68 276 0.0 0.0 0.00 0.00 0.00 89 1018.5
20260901071136 68 276 0.0 0.0 0.00 0.00 0.00 89 1018.5
20260901070625 68 276 0.0 0.0 0.00 0.00 0.00 89 1018.6
20260901070121 68 243 0.0 0.0 0.00 0.00 0.00 88 1018.5
20260901065614 69 243 0.0 2.0 0.00 0.00 0.00 88 1018.7
20260901065109 69 270 0.0 1.0 0.00 0.00 0.00 88 1018.4
20260901064606 68 270 0.0 2.0 0.00 0.00 0.00 88 1018.4
20260901064101 69 278 0.0 0.0 0.00 0.00 0.00 88 1018.5
20260901063553 69 254 0.0 1.0 0.00 0.00 0.00 88 1018.1
20260901063049 69 285 0.0 2.0 0.00 0.00 0.00 88 1018.2
20260901062544 69 262 0.0 0.0 0.00 0.00 0.00 88 1017.9
20260901062040 69 279 0.0 0.0 0.00 0.00 0.00 88 1017.9
20260901061536 69 263 0.0 2.0 0.00 0.00 0.00 88 1018.1
20260901061030 69 328 0.0 2.0 0.00 0.00 0.00 88 1018.1
20260901060525 69 277 0.0 0.0 0.00 0.00 0.00 87 1018.2
20260901060020 69 286 0.0 1.0 0.00 0.00 0.00 87 1018.2
20260901055516 69 294 0.0 2.0 0.00 0.00 0.00 87 1018.1
20260901055013 70 285 0.0 2.0 0.00 0.00 0.00 86 1018.1
20260901054509 70 270 0.0 2.0 0.00 0.00 0.00 86 1018.1
20260901054005 70 270 0.0 1.0 0.00 0.00 0.00 85 1018.0
20260901053501 70 255 0.0 1.0 0.00 0.00 0.00 85 1018.1
20260901052956 70 270 1.0 2.0 0.00 0.00 0.00 85 1018.2
20260901052451 70 261 0.0 2.0 0.00 0.00 0.00 85 1018.0
20260901051944 70 253 0.0 2.0 0.00 0.00 0.00 85 1018.1
20260901051440 70 270 0.0 1.0 0.00 0.00 0.00 85 1018.0
20260901050939 70 239 0.0 2.0 0.00 0.00 0.00 85 1017.8
20260901050435 70 278 1.0 2.0 0.00 0.00 0.00 85 1017.8
20260901045934 70 246 0.0 2.0 0.00 0.00 0.00 84 1017.7
20260901045429 70 257 0.0 2.0 0.00 0.00 0.00 84 1017.5
20260901044919 70 254 0.0 2.0 0.00 0.00 0.00 84 1017.7
20260901044415 70 277 0.0 2.0 0.00 0.00 0.00 84 1017.8
20260901043911 71 297 0.0 3.0 0.00 0.00 0.00 84 1017.8
20260901043407 71 311 2.0 2.0 0.00 0.00 0.00 83 1017.5
20260901042901 71 270 0.0 2.0 0.00 0.00 0.00 83 1017.5
20260901042401 71 249 1.0 3.0 0.00 0.00 0.00 83 1017.8
20260901041856 71 279 0.0 1.0 0.00 0.00 0.00 83 1017.6
20260901041351 71 270 0.0 2.0 0.00 0.00 0.00 83 1017.6
20260901040851 71 282 2.0 2.0 0.00 0.00 0.00 83 1017.5
20260901040351 71 270 0.0 2.0 0.00 0.00 0.00 82 1017.2
20260901035850 71 285 0.0 0.0 0.00 0.00 0.00 82 1017.0
20260901035349 72 282 2.0 3.0 0.00 0.00 0.00 82 1017.0
20260901034847 72 270 1.0 1.0 0.00 0.00 0.00 81 1017.1
20260901034343 72 270 0.0 2.0 0.00 0.00 0.00 81 1016.9
20260901033842 72 251 0.0 3.0 0.00 0.00 0.00 81 1016.9
20260901033341 72 258 0.0 3.0 0.00 0.00 0.00 80 1017.0
20260901032840 72 255 0.0 2.0 0.00 0.00 0.00 80 1016.7
20260901032335 72 278 0.0 3.0 0.00 0.00 0.00 79 1016.7
20260901031830 73 337 1.0 2.0 0.00 0.00 0.00 78 1016.8
20260901031326 73 279 0.0 3.0 0.00 0.00 0.00 78 1016.5
20260901030825 73 229 2.0 4.0 0.00 0.00 0.00 78 1016.3